CW9098 Weather Reports


Display with metric or nautical units.
time (UTC)temp
F
wind
direction
speed
MPH
gust
MPH
rain 1hr
in
rain 24hr
in
rain mn
in
humidity
%
barometer
mb
20260905085658 67 335 0.0 0.0 0.00 0.00 0.00 83 1012.4
20260905085122 68 335 0.0 0.0 0.00 0.00 0.00 83 1012.4
20260905084636 68 335 0.0 0.0 0.00 0.00 0.00 83 1012.4
20260905084124 68 335 0.0 0.0 0.00 0.00 0.00 83 1012.4
20260905083638 68 335 0.0 0.0 0.00 0.00 0.00 84 1012.3
20260905083126 68 335 0.0 0.0 0.00 0.00 0.00 84 1012.3
20260905082620 68 335 0.0 0.0 0.00 0.00 0.00 84 1012.3
20260905082134 68 252 0.0 0.0 0.00 0.00 0.00 84 1012.3
20260905081621 68 250 0.0 0.0 0.00 0.00 0.00 84 1012.4
20260905081137 68 250 0.0 0.0 0.00 0.00 0.00 84 1012.5
20260905080623 68 250 0.0 0.0 0.00 0.00 0.00 84 1012.5
20260905080137 68 250 0.0 0.0 0.00 0.00 0.00 84 1012.4
20260905075626 68 250 0.0 0.0 0.00 0.00 0.00 84 1012.5
20260905075120 68 250 0.0 0.0 0.00 0.00 0.00 84 1012.6
20260905074635 68 250 0.0 0.0 0.00 0.00 0.00 84 1012.6
20260905074123 68 250 0.0 0.0 0.00 0.00 0.00 84 1012.6
20260905073635 68 250 0.0 0.0 0.00 0.00 0.00 84 1012.7
20260905073142 68 169 0.0 0.0 0.00 0.00 0.00 84 1012.7
20260905072645 68 170 0.0 0.0 0.00 0.00 0.00 83 1012.7
20260905072137 68 170 0.0 0.0 0.00 0.00 0.00 83 1012.8
20260905071622 68 170 0.0 0.0 0.00 0.00 0.00 83 1012.9
20260905071159 69 170 0.0 0.0 0.00 0.00 0.00 84 1012.9
20260905070624 68 170 0.0 0.0 0.00 0.00 0.00 83 1013.0
20260905070159 68 170 0.0 0.0 0.00 0.00 0.00 83 1013.0
20260905065626 68 170 0.0 0.0 0.00 0.00 0.00 83 1013.1
20260905065119 68 170 0.0 0.0 0.00 0.00 0.00 83 1013.2
20260905064634 68 170 0.0 0.0 0.00 0.00 0.00 83 1013.2
20260905064125 68 170 0.0 0.0 0.00 0.00 0.00 83 1013.3
20260905063639 68 170 0.0 0.0 0.00 0.00 0.00 83 1013.4
20260905063125 68 170 0.0 0.0 0.00 0.00 0.00 83 1013.3
20260905062619 68 170 0.0 0.0 0.00 0.00 0.00 83 1013.4
20260905062133 68 170 0.0 0.0 0.00 0.00 0.00 83 1013.5
20260905061622 68 170 0.0 0.0 0.00 0.00 0.00 83 1013.5
20260905061157 68 170 0.0 0.0 0.00 0.00 0.00 83 1013.6
20260905060623 68 170 0.0 0.0 0.00 0.00 0.00 83 1013.6
20260905060138 68 170 0.0 0.0 0.00 0.00 0.00 83 1013.7
20260905055625 68 170 0.0 0.0 0.00 0.00 0.00 83 1013.8
20260905055139 69 170 0.0 0.0 0.00 0.00 0.00 83 1013.8
20260905054625 68 170 0.0 0.0 0.00 0.00 0.00 83 1013.9
20260905054157 68 169 0.0 0.0 0.00 0.00 0.00 83 1014.0
20260905053630 68 169 0.0 0.0 0.00 0.00 0.00 83 1014.0
20260905053145 69 170 0.0 0.0 0.00 0.00 0.00 83 1014.0
20260905052629 69 170 0.0 0.0 0.00 0.00 0.00 83 1014.2
20260905052122 69 170 0.0 0.0 0.00 0.00 0.00 83 1014.3
20260905051636 68 264 0.0 0.0 0.00 0.00 0.00 83 1014.4
20260905051124 68 264 0.0 0.0 0.00 0.00 0.00 83 1014.2
20260905050619 68 131 0.0 0.0 0.00 0.00 0.00 83 1014.1
20260905050134 68 225 0.0 0.0 0.00 0.00 0.00 83 1014.2
20260905045624 68 225 0.0 0.0 0.00 0.00 0.00 83 1014.2
20260905045137 68 225 0.0 0.0 0.00 0.00 0.00 83 1014.3
20260905044624 68 225 0.0 0.0 0.00 0.00 0.00 83 1014.4
20260905044139 68 225 0.0 0.0 0.00 0.00 0.00 83 1014.4
20260905043625 68 225 0.0 0.0 0.00 0.00 0.00 83 1014.5
20260905043120 68 221 0.0 0.0 0.00 0.00 0.00 83 1014.4
20260905042635 68 220 0.0 0.0 0.00 0.00 0.00 83 1014.4
20260905042122 68 221 0.0 0.0 0.00 0.00 0.00 83 1014.5
20260905041636 68 221 0.0 0.0 0.00 0.00 0.00 83 1014.4
20260905041145 68 220 0.0 0.0 0.00 0.00 0.00 83 1014.4
20260905040616 68 220 0.0 0.0 0.00 0.01 0.00 83 1014.4
20260905040131 68 222 0.0 0.0 0.00 0.01 0.00 83 1014.4
20260905035620 68 222 0.0 0.0 0.00 0.01 0.00 83 1014.4
20260905035134 68 220 0.0 0.0 0.00 0.01 0.00 83 1014.2
20260905034621 68 220 0.0 0.0 0.00 0.01 0.00 83 1014.2
20260905034136 68 220 0.0 0.0 0.00 0.01 0.00 83 1014.2
20260905033621 68 220 0.0 0.0 0.00 0.01 0.00 83 1014.1
20260905033116 68 220 0.0 0.0 0.00 0.01 0.00 83 1014.1
20260905032627 68 220 0.0 0.0 0.00 0.01 0.00 83 1014.0
20260905032120 68 220 0.0 0.0 0.00 0.01 0.00 83 1014.0
20260905031653 68 220 0.0 0.0 0.00 0.01 0.00 83 1013.9
20260905031147 68 222 0.0 0.0 0.00 0.01 0.00 83 1013.9
20260905030618 68 220 0.0 0.0 0.00 0.09 0.00 83 1013.8
20260905030134 68 220 0.0 0.0 0.00 0.09 0.00 83 1013.8
20260905025622 68 219 0.0 0.0 0.00 0.09 0.00 83 1013.7
20260905025135 68 220 0.0 0.0 0.00 0.09 0.00 83 1013.6
20260905024623 68 220 0.0 0.0 0.00 0.09 0.00 83 1013.5
20260905024138 68 220 0.0 0.0 0.00 0.09 0.00 83 1013.5
20260905023623 68 220 0.0 0.0 0.00 0.09 0.00 83 1013.5
20260905023138 68 220 0.0 0.0 0.00 0.09 0.00 83 1013.6
20260905022647 68 218 0.0 0.0 0.00 0.09 0.00 83 1013.6
20260905022138 68 218 0.0 0.0 0.00 0.09 0.00 82 1013.6
20260905021646 68 218 0.0 0.0 0.00 0.09 0.00 82 1013.7
20260905021141 68 218 0.0 0.0 0.00 0.09 0.00 82 1013.7
20260905020626 68 219 0.0 0.0 0.00 0.15 0.00 82 1013.8
20260905020119 68 219 0.0 0.0 0.00 0.15 0.00 82 1013.7
20260905015634 68 219 0.0 0.0 0.00 0.15 0.00 82 1013.7
20260905015121 68 219 0.0 0.0 0.00 0.15 0.00 82 1013.7
20260905014630 68 218 0.0 0.0 0.00 0.15 0.00 82 1013.8
20260905014118 68 218 0.0 0.0 0.00 0.15 0.00 82 1013.7
20260905013630 68 218 0.0 0.0 0.00 0.15 0.00 82 1013.7
20260905013122 68 218 0.0 0.0 0.00 0.15 0.00 82 1013.7
20260905012617 68 218 0.0 0.0 0.00 0.15 0.00 82 1013.7
20260905012131 69 218 0.0 0.0 0.00 0.15 0.00 82 1013.8
20260905011625 69 218 0.0 0.0 0.00 0.15 0.00 82 1013.8
20260905011139 69 218 0.0 0.0 0.00 0.15 0.00 82 1013.8
20260905010643 69 218 0.0 0.0 0.00 0.24 0.00 82 1013.8
20260905010137 69 218 0.0 0.0 0.00 0.24 0.00 82 1013.8
20260905005625 70 218 0.0 0.0 0.00 0.24 0.00 81 1013.8
20260905005119 70 218 0.0 0.0 0.00 0.24 0.00 82 1013.7
20260905004634 70 218 0.0 0.0 0.00 0.24 0.00 81 1013.8
20260905004122 70 218 0.0 0.0 0.00 0.24 0.00 81 1013.7
20260905003635 71 218 0.0 0.0 0.00 0.24 0.00 81 1013.7
20260905003122 71 218 0.0 0.0 0.00 0.24 0.00 81 1013.7
20260905002658 71 218 0.0 0.0 0.00 0.24 0.00 81 1013.6
20260905002124 72 218 0.0 0.0 0.00 0.24 0.00 81 1013.6
20260905001619 72 218 0.0 0.0 0.00 0.24 0.00 81 1013.6
20260905001135 73 218 0.0 0.0 0.00 0.24 0.00 81 1013.5
20260905000619 73 218 0.0 0.0 0.00 0.38 0.00 81 1013.3
20260905000155 73 218 0.0 0.0 0.00 0.38 0.00 81 1013.2
20260904235638 74 218 0.0 0.0 0.00 0.38 0.00 80 1013.3
20260904235123 74 218 0.0 0.0 0.00 0.38 0.00 81 1013.3
20260904234618 75 218 0.0 0.0 0.00 0.38 0.00 80 1013.1
20260904234134 75 218 0.0 0.0 0.00 0.38 0.00 80 1013.1
20260904233629 75 218 0.0 0.0 0.00 0.38 0.00 80 1013.1
20260904233144 76 218 0.0 0.0 0.00 0.38 0.00 80 1013.1
20260904232637 76 218 0.0 0.0 0.00 0.38 0.00 80 1013.1
20260904232122 77 218 0.0 0.0 0.00 0.38 0.00 80 1013.1
20260904231636 77 218 0.0 0.0 0.00 0.38 0.00 80 1013.2
20260904231124 78 218 0.0 0.0 0.00 0.38 0.00 79 1013.1
20260904230638 78 218 0.0 0.0 0.00 0.38 0.00 79 1013.1
20260904230126 79 218 0.0 0.0 0.00 0.38 0.00 78 1013.1
20260904225641 80 218 0.0 2.0 0.00 0.38 0.00 77 1013.1
20260904225135 80 218 0.0 2.0 0.00 0.38 0.00 76 1013.2
20260904224641 80 226 0.0 0.0 0.00 0.38 0.00 76 1013.1
20260904224135 80 226 0.0 1.0 0.00 0.38 0.00 76 1013.1
20260904223622 80 226 0.0 1.0 0.00 0.38 0.00 76 1013.0
20260904223156 80 226 0.0 0.0 0.00 0.38 0.00 75 1013.0
20260904222643 80 226 0.0 0.0 0.00 0.38 0.00 75 1013.1
20260904222130 80 226 0.0 0.0 0.00 0.38 0.00 75 1013.2
20260904221622 80 226 0.0 1.0 0.00 0.38 0.00 75 1013.3
20260904221136 80 226 0.0 1.0 0.00 0.38 0.00 74 1013.4
20260904220629 80 227 0.0 6.0 0.00 0.38 0.00 74 1013.3
20260904220143 80 226 2.0 6.0 0.00 0.38 0.00 73 1013.3
20260904215638 80 201 1.0 6.0 0.00 0.38 0.00 73 1013.2
20260904215124 80 203 2.0 6.0 0.00 0.38 0.00 73 1013.2
20260904214638 80 204 1.0 3.0 0.00 0.38 0.00 74 1013.4
20260904214124 80 294 0.0 8.0 0.00 0.38 0.00 72 1013.5
20260904213616 80 295 4.0 10.0 0.00 0.38 0.00 71 1013.5
20260904213151 80 266 4.0 10.0 0.00 0.38 0.00 71 1013.7
20260904212647 81 277 3.0 9.0 0.00 0.38 0.00 72 1013.7
20260904212124 81 278 5.0 10.0 0.00 0.38 0.00 71 1013.6
20260904211618 81 231 3.0 10.0 0.00 0.38 0.00 71 1013.4
20260904211134 81 244 3.0 8.0 0.00 0.38 0.00 70 1013.3
20260904210621 81 290 2.0 8.0 0.00 0.38 0.00 71 1013.3
20260904210137 81 282 0.0 1.0 0.00 0.38 0.00 70 1013.4
20260904205624 81 62 0.0 8.0 0.00 0.38 0.00 73 1013.4
20260904205118 81 41 1.0 8.0 0.00 0.38 0.00 73 1013.5
20260904204633 81 28 1.0 8.0 0.00 0.38 0.00 75 1013.5
20260904204120 80 106 0.0 1.0 0.00 0.38 0.00 73 1013.5
20260904203634 80 23 0.0 4.0 0.00 0.38 0.00 73 1013.5
20260904203121 80 23 0.0 9.0 0.00 0.38 0.00 72 1013.4
20260904202636 80 10 4.0 9.0 0.00 0.38 0.00 72 1013.6
20260904202123 80 338 4.0 8.0 0.00 0.38 0.00 72 1013.7
20260904201653 81 324 0.0 9.0 0.00 0.38 0.00 72 1013.7
20260904201129 81 314 3.0 16.0 0.00 0.38 0.00 71 1013.7
20260904200619 80 360 5.0 16.0 0.00 0.38 0.00 71 1013.8
20260904200134 81 324 9.0 15.0 0.00 0.38 0.00 71 1014.0
20260904195628 81 46 1.0 10.0 0.00 0.38 0.00 72 1014.0
20260904195120 81 16 2.0 12.0 0.00 0.38 0.00 71 1013.9
20260904194633 82 352 2.0 9.0 0.00 0.38 0.00 73 1013.9
20260904194122 82 305 2.0 9.0 0.00 0.38 0.00 69 1014.0
20260904193636 81 251 4.0 11.0 0.00 0.38 0.00 70 1014.0
20260904193123 82 226 4.0 11.0 0.00 0.38 0.00 72 1014.1
20260904192639 82 185 0.0 7.0 0.00 0.38 0.00 72 1014.1
20260904192125 82 232 3.0 7.0 0.00 0.38 0.00 73 1014.3
20260904191638 80 226 2.0 7.0 0.00 0.38 0.00 73 1014.1
20260904191126 79 255 0.0 5.0 0.00 0.38 0.00 75 1014.1
20260904190638 80 288 2.0 6.0 0.00 0.38 0.00 75 1014.2
20260904190125 79 268 0.0 4.0 0.00 0.38 0.00 75 1014.3
20260904185641 79 291 1.0 4.0 0.00 0.38 0.00 74 1014.3
20260904185124 80 278 1.0 3.0 0.00 0.38 0.00 75 1014.4
20260904184637 80 23 0.0 4.0 0.00 0.38 0.00 76 1014.5
20260904184123 79 22 1.0 4.0 0.00 0.38 0.00 76 1014.6
20260904183655 79 24 0.0 2.0 0.00 0.38 0.00 74 1014.7
20260904183122 79 22 0.0 3.0 0.00 0.38 0.00 75 1014.8
20260904182620 79 20 1.0 4.0 0.00 0.38 0.00 74 1014.8
20260904182135 79 26 0.0 4.0 0.00 0.38 0.00 75 1015.0
20260904181623 79 345 1.0 5.0 0.00 0.38 0.00 74 1015.2
20260904181118 79 324 1.0 5.0 0.00 0.38 0.00 73 1015.3
20260904180648 79 280 1.0 13.0 0.00 0.38 0.00 73 1015.5
20260904180121 79 276 7.0 16.0 0.00 0.38 0.00 74 1015.4
20260904175637 79 257 5.0 16.0 0.00 0.38 0.00 73 1015.5
20260904175130 79 309 10.0 15.0 0.00 0.38 0.00 71 1015.6
20260904174625 80 296 9.0 13.0 0.00 0.38 0.00 73 1015.7
20260904174141 81 356 8.0 13.0 0.00 0.38 0.00 71 1015.6
20260904173625 81 33 1.0 14.0 0.00 0.38 0.00 72 1015.7
20260904173138 81 297 7.0 16.0 0.00 0.38 0.00 71 1016.0
20260904172646 81 254 12.0 16.0 0.00 0.38 0.00 70 1016.1
20260904172119 81 253 3.0 12.0 0.00 0.38 0.00 71 1016.1
20260904171634 81 281 3.0 12.0 0.00 0.38 0.00 71 1015.8
20260904171123 81 276 7.0 12.0 0.00 0.38 0.00 69 1015.6
20260904170638 81 305 5.0 10.0 0.00 0.38 0.00 72 1015.6
20260904170123 81 274 4.0 10.0 0.00 0.38 0.00 71 1015.6
20260904165639 81 304 6.0 13.0 0.00 0.38 0.00 71 1015.5
20260904165125 81 269 6.0 13.0 0.00 0.38 0.00 70 1015.5
20260904164639 81 231 5.0 14.0 0.00 0.38 0.00 69 1015.5
20260904164134 81 309 7.0 14.0 0.00 0.38 0.00 71 1015.6
20260904163621 81 263 6.0 11.0 0.00 0.38 0.00 72 1015.5
20260904163138 81 286 7.0 13.0 0.00 0.38 0.00 71 1015.6
20260904162625 81 285 6.0 13.0 0.00 0.38 0.00 70 1015.6
20260904162138 82 236 7.0 11.0 0.00 0.38 0.00 71 1015.7
20260904161627 82 203 6.0 14.0 0.00 0.38 0.00 71 1015.7
20260904161123 81 228 9.0 15.0 0.00 0.38 0.00 70 1015.8
20260904160615 81 232 9.0 14.0 0.00 0.39 0.00 70 1015.8
20260904160149 81 278 4.0 11.0 0.00 0.39 0.00 72 1015.7
20260904155621 81 216 4.0 9.0 0.00 0.39 0.00 74 1015.8
20260904155134 80 293 5.0 14.0 0.00 0.39 0.00 75 1015.8
20260904154641 80 328 7.0 14.0 0.00 0.39 0.00 73 1015.9
20260904154136 80 226 4.0 12.0 0.00 0.39 0.00 74 1015.9
20260904153623 80 307 5.0 12.0 0.00 0.39 0.00 74 1015.9
20260904153138 80 253 4.0 10.0 0.00 0.39 0.00 75 1015.9
20260904152627 80 245 4.0 17.0 0.00 0.39 0.00 76 1015.9
20260904152119 79 222 1.0 7.0 0.00 0.39 0.00 75 1015.9
20260904151654 79 292 0.0 4.0 0.00 0.39 0.00 75 1015.8
20260904151121 79 185 1.0 3.0 0.00 0.39 0.00 76 1015.8
20260904150634 79 222 1.0 6.0 0.00 0.41 0.00 76 1015.8
20260904150122 78 225 1.0 6.0 0.00 0.41 0.00 76 1015.8
20260904145638 78 205 1.0 3.0 0.00 0.41 0.00 78 1015.9
20260904145144 78 205 0.0 3.0 0.00 0.41 0.00 78 1015.9
20260904144638 78 205 0.0 5.0 0.00 0.41 0.00 77 1015.9
20260904144142 77 205 1.0 5.0 0.00 0.41 0.00 78 1015.8
20260904143633 77 126 0.0 1.0 0.00 0.41 0.00 78 1015.9
20260904143128 76 66 0.0 5.0 0.00 0.41 0.00 79 1015.9
20260904142624 76 336 1.0 8.0 0.00 0.41 0.00 79 1015.9
20260904142157 76 38 0.0 3.0 0.00 0.41 0.00 79 1015.9
20260904141634 75 30 0.0 2.0 0.00 0.41 0.00 79 1015.8
20260904141120 75 147 0.0 2.0 0.00 0.41 0.00 80 1015.8
20260904140645 74 50 0.0 0.0 0.00 0.45 0.00 80 1015.7
20260904140139 74 317 0.0 0.0 0.00 0.45 0.00 80 1015.8
20260904135626 74 316 0.0 3.0 0.00 0.45 0.00 80 1015.9
20260904135119 74 316 1.0 3.0 0.00 0.45 0.00 80 1015.9
20260904134634 73 36 0.0 0.0 0.00 0.45 0.00 80 1015.9
20260904134144 73 36 0.0 4.0 0.00 0.45 0.00 80 1015.8
20260904133626 73 36 3.0 4.0 0.00 0.45 0.00 80 1015.8
20260904133141 73 74 1.0 6.0 0.00 0.45 0.00 80 1015.9
20260904132635 73 94 1.0 6.0 0.00 0.45 0.00 80 1015.7
20260904132121 73 66 1.0 6.0 0.00 0.45 0.00 80 1015.8
20260904131635 73 66 2.0 6.0 0.00 0.45 0.00 80 1015.8
20260904131123 73 36 2.0 5.0 0.00 0.45 0.00 80 1015.9
20260904130632 73 60 3.0 5.0 0.00 0.48 0.00 80 1015.9
20260904130138 73 61 3.0 5.0 0.00 0.48 0.00 80 1015.9
20260904125632 73 64 3.0 7.0 0.00 0.48 0.00 80 1016.0
20260904125124 72 103 2.0 6.0 0.00 0.48 0.00 81 1016.0
20260904124635 72 56 1.0 5.0 0.00 0.48 0.00 81 1016.0
20260904124143 72 64 2.0 5.0 0.00 0.48 0.00 81 1016.1
20260904123634 71 66 3.0 4.0 0.00 0.48 0.00 81 1016.0
20260904123120 71 66 3.0 4.0 0.00 0.48 0.00 81 1016.0
20260904122635 71 66 3.0 5.0 0.00 0.48 0.00 81 1016.0
20260904122121 71 62 1.0 5.0 0.00 0.48 0.00 81 1016.0
20260904121655 71 56 2.0 5.0 0.00 0.48 0.00 81 1016.0
20260904121141 71 58 2.0 6.0 0.00 0.48 0.00 81 1016.0
20260904120624 70 67 0.0 5.0 0.00 0.48 0.00 81 1015.9
20260904120156 70 51 2.0 5.0 0.00 0.48 0.00 82 1015.9
20260904115624 69 52 1.0 8.0 0.00 0.48 0.00 82 1015.8
20260904115136 69 60 4.0 8.0 0.00 0.48 0.00 83 1015.7
20260904114622 68 69 2.0 8.0 0.00 0.48 0.00 83 1015.7
20260904114132 68 24 4.0 8.0 0.00 0.48 0.00 83 1015.8
20260904113626 67 56 0.0 2.0 0.00 0.48 0.00 83 1015.9
20260904113120 67 289 0.0 0.0 0.00 0.48 0.00 83 1016.1
20260904112634 67 325 0.0 0.0 0.00 0.48 0.00 83 1016.0
20260904112148 67 325 0.0 0.0 0.00 0.48 0.00 83 1016.3
20260904111642 67 325 0.0 0.0 0.00 0.48 0.00 83 1016.3
20260904111139 67 330 0.0 0.0 0.00 0.48 0.00 83 1016.2
20260904110624 67 330 0.0 0.0 0.00 0.56 0.00 83 1016.1
20260904110137 66 330 0.0 0.0 0.00 0.56 0.00 83 1015.8
20260904105645 66 328 0.0 0.0 0.00 0.56 0.00 83 1016.0
20260904105138 66 327 0.0 0.0 0.00 0.56 0.00 83 1016.0
20260904104625 66 327 0.0 0.0 0.00 0.56 0.00 83 1016.0
20260904104140 66 327 0.0 0.0 0.00 0.56 0.00 83 1015.8
20260904103625 66 193 0.0 0.0 0.00 0.56 0.00 83 1015.6
20260904103138 66 193 0.0 0.0 0.00 0.56 0.00 83 1015.6
20260904102625 66 193 0.0 0.0 0.00 0.56 0.00 83 1015.5
20260904102139 66 193 0.0 0.0 0.00 0.56 0.00 83 1015.5
20260904101626 66 193 0.0 0.0 0.00 0.56 0.00 82 1015.5
20260904101201 67 193 0.0 3.0 0.00 0.56 0.00 82 1015.6
20260904100625 67 193 0.0 4.0 0.00 1.24 0.00 82 1015.4
20260904100120 67 193 2.0 4.0 0.00 1.24 0.00 82 1015.4
20260904095631 67 202 0.0 0.0 0.00 1.24 0.00 82 1015.5
20260904095124 67 202 0.0 1.0 0.00 1.24 0.00 82 1015.4
20260904094618 67 212 0.0 5.0 0.00 1.24 0.00 82 1015.5
20260904094154 67 212 1.0 5.0 0.00 1.24 0.00 82 1015.3
20260904093639 67 101 0.0 0.0 0.00 1.24 0.00 82 1015.4
20260904093123 67 101 0.0 2.0 0.00 1.24 0.00 82 1015.3
20260904092639 67 101 0.0 3.0 0.00 1.24 0.00 83 1015.0
20260904092124 67 94 0.0 3.0 0.00 1.24 0.00 83 1015.0
20260904091637 67 95 1.0 3.0 0.00 1.24 0.00 83 1015.0
20260904091131 67 95 0.0 0.0 0.00 1.24 0.00 83 1014.9
20260904090653 68 95 0.0 4.0 0.00 1.36 1.24 84 1014.8
20260904090120 68 95 1.0 10.0 0.00 1.36 1.24 84 1014.9